Kitsat-OSCAR-23

operational
NORAD ID: 22077 Int'l Des: 1992-052 Owner: KAIST Country: KR
LEOCIRCULAR

About Kitsat-OSCAR-23

Description loading...

Live Position

Loading 3D Globe...

Upcoming Passes

Altitude History

Altitude vs Time

uPlot chart will show altitude changes over time

Two-Line Element Set

1 22077U 92052B 26061.49813865 -.00000045 00000-0 68652-4 0 9996
2 22077 66.0848 144.6231 0012542 308.4452 63.5274 12.86609334575964
Epoch: Mar 2, 2026 • Age: 24 hours

Current Status

Altitude 1332.2 km
Velocity 7.19 km/s
Sub-Earth Point -62.96°S, 143.72°W
Launch Date Aug 10, 1992
Age 33.5 years
Type other

Technical Details

Classification Payload
Mass 48.00 kg
Dry Mass 48.00 kg
Total Mass 48.00 kg
Length 0.60 m
Diameter 0.40 m
Span 6.50 m
Shape Box + Ant
Manufacturer SSTL
Bus Type UoSAT
Phase Status In Orbit
Owner/State KAIST/KR

Large Constellations

Loading constellations...